FENGYUN 1C DEB, 35159

Orbit data source: Space-Track

FENGYUN 1C DEB, 35159 is space debris in SSO originally from a launch on Mon, 10 May 1999 UTC launched from the Taiyaun Space Center, China (TSC). Fengyun 1C debris stems from the Chinese weather satellite Fengyun-1C, which was intentionally destroyed by a Chinese anti-satellite missile in 2007. This event dramatically increased the amount of space debris, with thousands of trackable fragments posing hazards to satellites and human spaceflight. The Fengyun 1C debris cloud has become a focal point in discussions about space sustainability and the need for international regulations to prevent the creation of new debris.

Loading next visibility...
Identifier
35159, 1999-025DMP
Orbit
SSO
Country
Flag of CNCN / PRC
Related business
Manufacturer
Unknown
Mission
Spacecraft
Bus & Motor
Unknown
Mass
Unknown
Launch date (UTC)
1999-05-10 (26 years ago)
Launch vehicle
Unknown
Launch site
Taiyaun Space Center, China (TSC)
Object type
Payload
Rocket body
Debris
Shape & HBR
Unknown shape, 0.1 m
Radar Cross Section
Small (<0.1 m²)

Expand to show TLE details & history
Last TLE update: 2 days ago

TLE from 2 days ago
0 FENGYUN 1C DEB
1 35159U 99025DMP 25307.14999029  .00006913  00000-0  20183-2 0  9993
2 35159  98.8421  20.7696 0010585 283.9599 141.2882 14.44363304609093
Epoch: 2025-11-03T03:35Z
TLE epoch observation values (Epoch: 2025-11-03T03:35:59.161Z)
Latitude
63.97297°
Longitude
-94.35588°
Altitude
760.989 km
Speed
7.477 km/s
True Right ascension
00h 09m 11s
True Declination
63° 50' 14"
Sunlit
Object was in full shadow at epoch
Visualization orbit readout
Latitude
Unknown
Longitude
Unknown
Altitude
Unknown
Speed
Unknown
Apparent Right ascension
Unknown
Apparent Declination
Unknown
Sunlit
N/A
Visualization observer readout
Local Sidereal Time
07:19:45
Azimuth
Unknown
Elevation
Unknown
Doppler factor
Unknown
Orbital elements
Apogee altitude
748.787 km
Perigee altitude
733.715 km
Semi-major axis
7,119.388 km
Eccentricity
0.00106
Inclination
98.8421°
RAAN
20.7696°
Arg. of periapsis
283.9599°
True anomaly
141.36398°
Mean anomaly
141.2882°
Eccentric anomaly
141.3261°
Mean motion
3.61309 °/min
Orbital period
99.64 mins
BSTAR
0.0020183
Loading maneuver chart data...
Computing Atmospheric mass density...

Documentation

Showing up to 5 results
|